Ortonville, MN

3:10 AM CST on December 10, 2016 (GMT -0600)
Ortonville Municipal-Martinson

Weather History for KVVV - March, 2013

Change the Weather History Date:

Thursday, March 14, 2013

  Actual Average (KAQP) Record (KAQP)
Temperature  
Mean Temperature 28 °F -  
Max Temperature 35 °F 31 °F 64 °F (2015)
Min Temperature 21 °F 15 °F 1 °F (1997)
Degree Days  
Heating Degree Days 37    
Moisture  
Dew Point 24 °F    
Average Humidity 81    
Maximum Humidity 93    
Minimum Humidity 69    
Precipitation  
Precipitation 0.00 in - - ()
Sea Level Pressure  
Sea Level Pressure 30.05 in    
Wind  
Wind Speed 8 mph (ESE)    
Max Wind Speed 17 mph    
Max Gust Speed -    
Visibility 8 miles    
Events      
Averages and records for this station are not official NWS values.
T = Trace of Precipitation, MM = Missing Value Source: NWS Daily Summary

Daily Weather History Graph

Daily Weather History Graph

Search for Another Location

Airport or City:

Trip Planner

Search our weather history database for the weather conditions in past years. The results will help you decide how hot, cold, wet, or windy it might be!

Date:

Astronomy

Mar. 14, 2013 Rise Set
Actual Time 7:39 AM CDT 7:30 PM CDT
Civil Twilight 7:10 AM CDT 8:00 PM CDT
Nautical Twilight 6:35 AM CDT 8:34 PM CDT
Astronomical Twilight 6:01 AM CDT 9:09 PM CDT
Moon 8:44 AM CDT (3/14) 10:59 PM CDT (3/14)
Length of Visible Light 12h 49m
Length of Day
11h 51m
Waxing Crescent, 9% of the Moon is Illuminated
Mar 14
Waxing Crescent
Mar 19
First Quarter
Mar 27
Full
Apr 2
Last Quarter
Apr 10
New

Hourly Weather History & Observations

Time (CDT) Temp. Windchill Dew Point Humidity Pressure Visibility Wind Dir Wind Speed Gust Speed Precip Events Conditions
12:14 AM 26.6 °F 17.5 °F 23.0 °F 86% 30.09 in 10.0 mi ESE 9.2 mph - N/A   Overcast
12:33 AM 26.6 °F 16.2 °F 23.0 °F 86% 30.08 in 10.0 mi SE 11.5 mph - N/A   Overcast
12:54 AM 26.6 °F 16.2 °F 23.0 °F 86% 30.07 in 10.0 mi SE 11.5 mph - N/A   Overcast
1:14 AM 26.6 °F 16.2 °F 23.0 °F 86% 30.06 in 10.0 mi SE 11.5 mph - N/A   Overcast
1:54 AM 28.4 °F 16.2 °F 24.8 °F 86% 30.02 in 10.0 mi SE 17.3 mph - N/A   Overcast
2:14 AM 28.4 °F 16.2 °F 24.8 °F 86% 30.01 in 10.0 mi SE 17.3 mph - N/A   Overcast
2:33 AM 28.4 °F 17.5 °F 24.8 °F 86% 30.01 in 10.0 mi SE 13.8 mph - N/A   Overcast
2:54 AM 28.4 °F 19.7 °F 24.8 °F 86% 30.01 in 10.0 mi SSE 9.2 mph - N/A   Overcast
3:14 AM 28.4 °F 18.0 °F 24.8 °F 86% 30.02 in 10.0 mi SE 12.7 mph - N/A   Overcast
3:33 AM 30.2 °F 18.9 °F 24.8 °F 80% 29.99 in 10.0 mi SE 16.1 mph - N/A   Overcast
3:54 AM 28.4 °F 17.5 °F 24.8 °F 86% 29.99 in 10.0 mi SE 13.8 mph - N/A   Scattered Clouds
4:14 AM 28.4 °F 19.1 °F 23.0 °F 80% 30.00 in 10.0 mi SE 10.4 mph - N/A   Clear
4:34 AM 28.4 °F 19.1 °F 23.0 °F 80% 30.00 in 10.0 mi SE 10.4 mph - N/A   Clear
4:54 AM 26.6 °F 17.5 °F 23.0 °F 86% 29.99 in 10.0 mi SE 9.2 mph - N/A   Clear
5:14 AM 26.6 °F 16.8 °F 23.0 °F 86% 29.99 in 10.0 mi SE 10.4 mph - N/A   Clear
5:34 AM 26.6 °F 17.5 °F 21.2 °F 80% 29.99 in 10.0 mi SE 9.2 mph - N/A   Clear
5:54 AM 26.6 °F 18.2 °F 21.2 °F 80% 30.00 in 10.0 mi ESE 8.1 mph - N/A   Clear
6:13 AM 26.6 °F 19.1 °F 21.2 °F 80% 30.01 in 10.0 mi ESE 6.9 mph - N/A   Clear
6:34 AM 24.8 °F 16.1 °F 21.2 °F 86% 30.00 in 10.0 mi ESE 8.1 mph - N/A   Clear
6:54 AM 24.8 °F 16.1 °F 21.2 °F 86% 30.01 in 10.0 mi ESE 8.1 mph - N/A   Clear
7:13 AM 24.8 °F 16.1 °F 19.4 °F 80% 30.02 in 7.0 mi East 8.1 mph - N/A   Clear
7:34 AM 23.0 °F 15.8 °F 19.4 °F 86% 30.02 in 7.0 mi East 5.8 mph - N/A   Clear
7:54 AM 21.2 °F 13.6 °F 17.6 °F 86% 30.03 in 7.0 mi ENE 5.8 mph - N/A   Clear
8:13 AM 21.2 °F 14.9 °F 19.4 °F 93% 30.05 in 7.0 mi East 4.6 mph - N/A   Clear
8:54 AM 21.2 °F - 19.4 °F 93% 30.06 in 7.0 mi Calm Calm - N/A   Clear
9:13 AM 21.2 °F - 17.6 °F 86% 30.07 in 7.0 mi Calm Calm - N/A   Clear
9:34 AM 23.0 °F 18.4 °F 19.4 °F 86% 30.07 in 7.0 mi East 3.5 mph - N/A   Clear
9:54 AM 24.8 °F - 19.4 °F 80% 30.07 in 7.0 mi Calm Calm - N/A   Clear
10:13 AM 26.6 °F 22.6 °F 19.4 °F 74% 30.06 in 7.0 mi East 3.5 mph - N/A   Clear
10:34 AM 26.6 °F 22.6 °F 21.2 °F 80% 30.07 in 7.0 mi East 3.5 mph - N/A   Clear
10:54 AM 26.6 °F 22.6 °F 21.2 °F 80% 30.06 in 7.0 mi East 3.5 mph - N/A   Clear
11:14 AM 28.4 °F - 21.2 °F 74% 30.08 in 7.0 mi Calm Calm - N/A   Clear
11:34 AM 30.2 °F - 21.2 °F 69% 30.08 in 7.0 mi Calm Calm - N/A   Clear
11:53 AM 30.2 °F - 23.0 °F 75% 30.08 in 10.0 mi Calm Calm - N/A   Clear
12:14 PM 30.2 °F - 23.0 °F 75% 30.09 in 7.0 mi Calm Calm - N/A   Clear
12:34 PM 33.8 °F 27.7 °F 24.8 °F 70% 30.09 in 7.0 mi West 6.9 mph - N/A   Clear
12:53 PM 33.8 °F 27.7 °F 24.8 °F 70% 30.10 in 10.0 mi WNW 6.9 mph - N/A   Clear
1:14 PM 33.8 °F 27.0 °F 24.8 °F 70% 30.10 in 10.0 mi NW 8.1 mph - N/A   Clear
1:33 PM 33.8 °F 27.7 °F 26.6 °F 75% 30.09 in 10.0 mi North 6.9 mph - N/A   Clear
1:54 PM 35.6 °F 29.9 °F 26.6 °F 70% 30.09 in 10.0 mi North 6.9 mph - N/A   Clear
2:14 PM 35.6 °F 31.7 °F 26.6 °F 70% 30.09 in 10.0 mi NNE 4.6 mph - N/A   Clear
2:34 PM 33.8 °F - 26.6 °F 75% 30.08 in 10.0 mi Calm Calm - N/A   Clear
2:53 PM 35.6 °F - 26.6 °F 70% 30.08 in 10.0 mi Calm Calm - N/A   Clear
3:14 PM 35.6 °F 32.8 °F 26.6 °F 70% 30.08 in 10.0 mi East 3.5 mph - N/A   Clear
3:34 PM 35.6 °F 32.8 °F 26.6 °F 70% 30.08 in 10.0 mi ESE 3.5 mph - N/A   Clear
3:53 PM 35.6 °F - 26.6 °F 70% 30.09 in 10.0 mi Calm Calm - N/A   Clear
4:14 PM 35.6 °F 32.8 °F 26.6 °F 70% 30.09 in 10.0 mi SW 3.5 mph - N/A   Clear
4:34 PM 35.6 °F - 28.4 °F 75% 30.08 in 10.0 mi Calm Calm - N/A   Clear
4:54 PM 35.6 °F - 26.6 °F 70% 30.07 in 10.0 mi Calm Calm - N/A   Clear
5:14 PM 35.6 °F 32.8 °F 26.6 °F 70% 30.06 in 10.0 mi ESE 3.5 mph - N/A   Clear
5:33 PM 35.6 °F 31.7 °F 28.4 °F 75% 30.07 in 10.0 mi SE 4.6 mph - N/A   Clear
5:54 PM 33.8 °F - 28.4 °F 81% 30.07 in 10.0 mi Calm Calm - N/A   Clear
6:13 PM 33.8 °F 29.6 °F 26.6 °F 75% 30.06 in 10.0 mi SSE 4.6 mph - N/A   Clear
6:34 PM 33.8 °F 28.6 °F 26.6 °F 75% 30.05 in 7.0 mi SE 5.8 mph - N/A   Clear
6:53 PM 33.8 °F 29.6 °F 26.6 °F 75% 30.05 in 7.0 mi SSE 4.6 mph - N/A   Clear
7:14 PM 32.0 °F - 26.6 °F 80% 30.06 in 7.0 mi Calm Calm - N/A   Clear
7:34 PM 30.2 °F 26.7 °F 26.6 °F 86% 30.05 in 7.0 mi South 3.5 mph - N/A   Clear
7:54 PM 30.2 °F - 26.6 °F 86% 30.05 in 7.0 mi Calm Calm - N/A   Clear
8:14 PM 30.2 °F 24.3 °F 26.6 °F 86% 30.03 in 7.0 mi SE 5.8 mph - N/A   Clear
8:33 PM 28.4 °F 23.3 °F 26.6 °F 93% 30.03 in 5.0 mi SE 4.6 mph - N/A   Clear
8:54 PM 28.4 °F 24.6 °F 24.8 °F 86% 30.02 in 7.0 mi SSE 3.5 mph - N/A   Clear
9:14 PM 28.4 °F - 24.8 °F 86% 30.02 in 7.0 mi Calm Calm - N/A   Clear
9:33 PM 28.4 °F 24.6 °F 24.8 °F 86% 30.04 in 5.0 mi NW 3.5 mph - N/A   Clear
9:54 PM 28.4 °F 24.6 °F 24.8 °F 86% 30.03 in 4.0 mi NNE 3.5 mph - N/A   Clear
10:14 PM 26.6 °F 22.6 °F 24.8 °F 93% 30.02 in 5.0 mi North 3.5 mph - N/A   Clear
10:33 PM 28.4 °F - 24.8 °F 86% 30.01 in 5.0 mi Calm Calm - N/A   Clear
10:54 PM 28.4 °F - 24.8 °F 86% 30.02 in 5.0 mi Calm Calm - N/A   Clear
11:14 PM 26.6 °F 22.6 °F 24.8 °F 93% 30.01 in 5.0 mi NW 3.5 mph - N/A   Clear
11:33 PM 26.6 °F 19.1 °F 24.8 °F 93% 30.01 in 5.0 mi NNW 6.9 mph - N/A   Clear
11:54 PM 26.6 °F 20.0 °F 24.8 °F 93% 30.01 in 5.0 mi NNW 5.8 mph - N/A   Clear